CAPE
11 7 15 23 31 35 46 26 63 57 67 74 102 120 84 32 9 25 3 1 16 4 0 0 0 0 0 0 0 0 0 0 0 0 0 0 0 0 1 0 0 0 0
14 29 25 11 33 38 23 28 16 52 46 62 37 59 33 18 11 9 3 1 0 0 0 0 0 0 0 0 0 0 0 0 0 0 0 0 0 0 0 0 0 0 0
4 38 8 3 0 2 6 0 0 26 37 24 11 16 19 9 15 6 9 0 0 0 0 0 0 0 0 0 0 0 0 0 0 1 0 0 0 0 0 0 0 0 0
9 20 16 4 0 0 0 0 0 0 0 1 0 0 0 1 0 0 0 0 0 0 0 0 0 0 0 0 0 0 0 0 0 0 0 0 0 0 0 0 0 0 0
1 1 0 0 0 0 0 0 0 0 0 0 0 0 0 0 0 0 0 0 0 0 0 0 0 0 0 0 0 0 0 0 0 0 0 0 0 0 0 0 0 0 0
0 0 0 1 0 0 0 0 0 0 0 0 0 0 0 0 0 0 0 0 0 0 0 0 0 0 0 0 0 0 0 0 0 0 0 0 0 1 0 0 0 0 0
0 0 0 0 0 0 0 0 0 0 0 0 0 0 0 0 0 0 0 0 0 0 0 0 0 0 0 0 0 0 0 0 0 0 0 1 1 0 0 0 0 0 0
0 0 0 0 0 0 0 0 0 0 0 0 0 0 0 0 0 0 0 0 0 0 0 0 0 0 0 0 0 0 0 0 0 0 0 0 0 0 0 0 0 0 0
0 0 0 0 0 0 0 0 0 0 0 0 0 0 0 0 0 0 0 0 0 0 0 0 0 0 0 0 0 0 0 0 0 0 0 0 0 1 1 0 0 0 0
0 0 0 0 0 0 0 0 0 0 0 0 0 0 0 0 0 0 0 0 0 0 0 0 0 0 0 0 0 0 0 0 0 0 0 0 0 0 0 0 1 1 1
0 0 0 0 0 0 0 0 0 0 0 0 0 0 0 0 0 0 0 0 0 0 0 0 0 0 0 0 0 0 0 0 0 0 0 0 0 0 0 0 0 1 2
0 0 0 0 0 0 0 0 0 0 0 0 0 0 0 0 0 0 0 0 0 0 0 0 0 0 0 0 0 0 2 0 0 0 0 0 0 0 0 0 0 0 0
0 0 0 0 0 0 0 0 0 0 0 0 0 0 0 0 0 0 0 0 0 0 0 0 0 0 0 0 0 0 1 0 0 0 0 0 0 0 0 0 0 0 0
0 0 0 0 0 0 0 0 0 0 0 0 0 0 0 0 0 0 0 0 1 0 0 0 0 0 0 0 0 0 0 0 0 0 0 0 0 0 0 0 0 0 0
0 0 0 0 0 0 0 0 0 0 0 0 0 0 0 0 0 0 0 0 0 0 0 0 0 0 0 0 0 0 0 0 0 0 0 0 0 0 0 0 0 0 0
0 0 0 0 0 0 0 0 0 0 0 0 0 0 0 0 0 0 0 0 0 0 0 0 1 0 0 0 0 0 0 0 0 0 0 0 0 0 0 0 1 0 0
0 0 0 0 0 0 0 0 1 0 0 0 1 1 0 0 2 0 0 1 0 2 0 0 0 0 0 0 0 0 0 0 0 0 0 0 0 0 1 0 0 0 0
0 0 1 1 0 0 0 0 0 0 1 0 0 0 1 2 2 0 1 5 3 3 1 0 0 0 0 0 0 0 0 0 0 0 0 0 0 0 0 0 0 0 0
0 0 0 0 0 0 1 1 1 0 0 0 0 0 0 0 0 3 5 3 2 2 2 1 0 0 0 0 0 0 0 0 0 0 0 0 0 0 0 0 0 0 0
0 0 0 0 0 0 0 0 0 0 0 1 0 0 0 0 0 0 0 0 0 0 0 1 0 0 0 0 0 0 0 0 1 0 0 0 1 0 0 0 0 0 0
0 0 0 0 0 0 0 0 0 0 0 0 0 1 2 2 1 0 0 0 0 0 0 0 0 0 1 1 0 0 0 0 0 0 0 0 1 0 0 0 0 0 0
0 0 0 0 0 0 0 0 0 0 0 0 0 0 0 0 0 0 0 0 0 0 0 0 0 0 0 0 0 0 0 0 1 1 1 1 0 1 0 0 0 0 0
0 0 0 0 0 0 0 0 0 0 0 0 0 0 0 0 0 0 0 0 0 0 0 0 0 0 0 0 0 0 0 0 0 0 1 1 1 1 0 0 0 0 0
0 0 0 0 0 0 0 0 0 0 0 0 0 0 0 0 0 0 0 0 0 0 0 0 0 0 0 0 0 0 0 0 0 0 0 0 0 0 0 0 0 0 0
0 0 0 0 0 0 0 0 0 0 0 0 0 0 0 0 0 0 0 0 0 0 0 0 0 0 0 0 0 0 0 0 0 0 0 0 1 0 0 0 0 0 0
0 0 0 0 0 0 0 0 0 0 0 0 0 0 0 0 0 0 0 0 0 0 0 0 0 0 0 0 0 0 0 0 0 0 0 0 0 0 0 0 0 0 0
CIN
-33 -24 -21 -56 -66 -58 -4 -38 -24 -56 -45 -48 -30 -24 -24 -42 -20 -23 -170 -83 -67 -116 0 0 0 0 0 0 0 0 -1 0 0 0 0 0 0 0 0 0 0 0 0
-7 -10 -9 -8 -17 -7 -14 -28 -27 -7 -15 -51 -67 -41 -28 -49 -38 -61 -134 -153 0 0 0 0 0 0 0 0 0 0 0 0 -2 0 0 0 0 0 0 0 0 0 0
-15 -1 -6 -61 0 -32 -32 -1 -4 -10 -7 -6 -26 -59 -89 -99 -65 -93 -46 0 0 0 0 0 0 0 0 0 0 0 0 0 0 0 0 0 0 0 0 0 0 0 0
-16 -37 -56 -46 0 0 0 -2 0 0 0 -1 0 0 0 -63 0 0 0 0 0 0 0 0 0 0 0 0 0 0 0 0 0 0 0 0 0 0 0 0 0 0 0
-67 -55 0 0 0 0 0 0 0 0 0 0 0 0 0 0 0 0 0 0 0 0 0 0 0 0 0 0 0 0 0 0 0 0 0 0 0 0 0 0 0 0 0
0 0 0 0 0 0 0 0 0 0 0 0 0 0 0 0 0 0 0 0 0 0 0 0 0 0 0 0 0 0 0 0 0 0 0 0 0 0 0 0 0 0 0
0 0 0 0 0 0 0 0 0 0 0 0 0 0 0 0 0 0 0 0 0 0 0 0 0 0 0 0 0 0 0 0 0 0 0 0 0 0 0 0 0 0 0
0 0 0 0 0 0 0 0 0 0 0 0 0 0 0 0 0 0 0 0 0 0 0 0 0 0 0 0 0 0 0 0 0 0 0 0 0 0 0 0 0 0 0
0 0 0 0 0 0 0 0 0 0 0 0 0 0 0 0 0 0 0 0 0 0 0 0 0 0 0 0 0 0 0 0 0 0 0 0 0 0 0 0 0 0 0
0 0 0 0 0 0 0 0 0 0 0 0 0 0 0 0 0 0 0 0 0 0 0 0 0 0 0 0 0 0 0 0 0 0 0 0 0 0 0 0 0 0 0
0 0 0 0 0 0 0 0 0 0 0 0 0 0 0 0 0 0 0 0 0 0 0 0 0 0 0 0 0 0 0 0 0 0 0 0 0 0 0 0 0 0 0
0 0 0 0 0 0 0 0 0 0 0 0 0 0 0 0 0 0 0 0 0 0 0 0 0 0 0 0 0 0 0 -1 0 0 0 0 0 0 0 0 0 0 0
0 0 0 0 0 0 0 0 0 0 0 0 0 0 0 0 0 0 0 0 0 0 0 0 0 0 0 0 0 0 0 0 0 0 0 0 0 0 0 0 0 0 0
0 0 0 0 0 0 0 0 0 0 0 0 0 0 0 0 0 0 0 0 0 0 0 0 0 0 0 0 0 0 0 0 0 0 0 0 0 0 0 0 0 0 0
0 0 0 0 0 0 0 0 0 0 0 0 0 0 0 0 0 0 0 0 0 0 0 0 0 0 0 0 0 0 0 0 0 0 0 0 0 0 0 0 0 0 0
0 0 0 0 0 0 0 0 0 0 0 0 0 0 0 0 0 0 0 0 0 0 0 0 0 0 0 0 0 0 0 0 0 0 0 0 0 0 0 0 0 0 0
0 0 0 0 0 0 0 0 0 0 0 0 0 0 0 -4 -4 -1 0 0 0 0 0 0 0 0 0 0 0 0 0 0 0 0 0 0 0 0 0 0 0 0 0
0 0 0 0 0 0 0 0 0 0 0 0 0 0 0 -2 0 0 -1 0 0 0 0 0 0 0 0 0 0 0 0 0 0 0 0 0 0 0 0 0 0 0 0
0 0 0 0 0 0 0 0 0 0 0 0 0 0 0 0 0 0 0 0 0 0 0 0 0 0 0 0 0 0 0 0 0 0 0 0 0 0 0 0 0 0 0
0 0 0 0 0 0 0 0 0 0 0 0 0 0 0 0 0 0 0 0 0 0 0 0 0 0 0 0 0 0 0 0 0 0 0 0 0 0 0 0 0 0 0
0 0 0 0 0 0 0 0 0 0 0 0 0 0 0 0 0 0 0 0 0 0 0 0 0 0 0 0 0 0 0 0 0 0 0 0 0 0 0 0 0 0 0
0 0 0 0 0 0 0 0 0 0 0 0 0 0 0 0 0 0 0 0 0 0 0 0 0 0 0 0 0 0 0 0 0 0 0 0 0 0 0 0 0 0 0
0 0 0 0 0 0 0 0 0 0 0 0 0 0 0 0 0 0 0 0 0 0 0 0 0 0 0 0 0 0 0 0 0 0 0 0 0 0 0 0 0 0 0
0 0 0 0 0 0 0 0 0 0 0 0 0 0 0 0 0 0 0 0 0 0 0 0 0 0 0 0 0 0 0 0 0 0 0 0 0 0 0 0 0 0 0
0 0 0 0 0 0 0 0 0 0 0 0 0 0 0 0 0 0 0 0 0 0 0 0 0 0 0 0 0 0 0 0 0 0 0 -1 0 0 0 0 0 0 0
0 0 0 0 0 0 0 0 0 0 0 0 0 0 0 0 0 0 0 0 0 0 0 0 0 0 0 0 0 0 0 0 0 0 0 0 0 0 0 0 0 0 0
Wind_Speed
14 18 17 15 14 22 18 15 18 19 17 19 19 18 18 18 17 17 17 17 18 8 16 20 18 17 16 16 17 18 19 19 18 16 22 24 27 27 26 24 22 21 19
5 6 16 15 14 16 23 22 21 20 20 23 21 19 18 18 17 18 25 24 14 12 15 14 16 16 17 17 18 19 19 19 18 16 22 25 24 25 25 23 23 21 20
4 4 5 15 4 10 13 13 9 19 21 21 23 29 28 27 22 18 15 15 10 15 15 15 15 16 16 17 18 20 18 17 19 21 25 24 25 25 24 23 21 19 18
2 2 1 7 3 4 9 6 7 4 15 18 13 18 22 18 17 8 8 8 9 11 12 14 16 17 17 19 20 18 18 19 21 23 24 25 26 26 26 26 26 22 20
7 9 6 7 7 7 7 5 4 1 3 1 2 4 9 8 6 6 6 6 8 10 13 16 18 19 19 20 20 20 20 20 22 23 25 26 28 28 28 25 26 24 22
10 8 7 6 6 5 4 4 4 2 1 3 8 8 6 4 5 5 8 10 11 13 15 17 18 19 20 20 20 21 21 22 22 23 25 26 27 28 26 26 26 25 25
9 9 8 8 8 7 6 5 4 4 7 12 14 10 9 10 10 10 9 10 12 13 15 16 17 19 19 20 20 21 21 21 22 23 24 24 25 25 27 28 27 25 23
11 11 10 9 9 8 8 7 6 7 6 13 14 13 11 11 10 10 11 12 14 15 16 18 19 20 20 21 22 23 22 22 22 21 22 24 24 26 24 23 24 24 23
13 13 13 11 10 11 10 10 13 10 10 13 14 13 12 12 12 12 13 15 16 17 18 19 19 20 21 21 23 24 24 24 20 20 21 23 25 26 24 21 22 21 22
15 13 13 12 12 12 12 15 12 12 12 12 14 14 13 13 13 14 16 16 17 17 18 19 19 19 18 20 21 22 24 24 20 22 23 23 23 24 25 23 21 21 20
16 16 15 14 14 13 13 13 13 14 15 18 19 20 19 18 18 18 18 19 19 19 19 19 18 18 19 20 21 22 22 20 23 22 22 23 24 23 23 23 21 19 19
18 18 18 18 19 19 19 19 19 20 20 22 23 25 24 22 21 20 20 19 18 18 18 18 19 19 22 22 23 23 22 22 23 22 23 24 24 24 23 22 21 20 18
21 21 20 20 21 21 22 22 23 22 23 25 25 25 24 23 22 21 20 20 20 20 19 19 19 21 22 23 23 23 23 22 22 23 23 23 22 23 21 20 22 21 19
24 24 24 23 22 22 23 23 24 25 25 26 27 27 25 23 22 21 23 22 22 22 22 22 21 22 22 24 24 23 23 22 22 23 23 23 19 21 21 20 21 20 20
24 24 26 26 26 25 25 25 27 25 25 27 28 29 30 30 27 26 25 25 25 24 22 22 22 23 24 25 25 24 22 22 21 21 22 22 21 20 20 19 20 20 18
23 24 24 24 26 27 28 29 25 26 28 28 28 28 29 29 29 28 28 26 25 23 23 23 24 22 24 26 25 24 23 21 21 22 22 21 20 19 20 19 20 19 18
24 24 24 25 25 26 27 31 35 33 31 31 32 30 29 31 30 31 31 29 26 23 25 24 24 23 25 24 24 23 25 24 20 20 20 19 20 19 19 20 19 20 19
24 23 24 22 23 24 25 28 30 33 35 34 31 32 32 31 29 29 27 26 27 25 26 26 24 23 25 26 24 23 25 25 22 21 20 19 18 19 18 19 19 18 18
26 25 23 22 22 24 25 27 28 30 32 34 34 33 32 32 34 34 32 27 26 27 29 31 29 27 27 25 26 26 25 24 22 20 20 20 18 18 19 18 18 19 18
27 26 26 25 24 24 26 28 29 30 32 33 34 34 34 34 34 33 33 33 35 36 34 33 30 28 27 27 26 26 25 23 22 20 19 20 19 19 20 20 19 19 19
27 26 26 25 24 24 25 27 29 30 32 32 32 32 32 33 34 33 33 32 32 32 32 31 29 28 26 26 25 25 24 23 22 22 22 21 20 20 20 21 21 20 21
25 26 27 26 25 24 25 26 28 30 31 32 31 30 32 32 32 32 30 29 28 26 25 25 25 24 24 23 23 24 24 24 24 23 23 21 22 22 21 21 22 21 21
25 26 26 25 24 24 24 24 25 28 30 30 30 30 30 30 30 30 29 27 26 25 23 23 22 22 22 22 22 23 24 24 24 23 23 22 22 22 21 22 22 23 23
23 24 24 24 24 24 25 26 27 28 29 30 31 30 29 29 29 29 29 29 29 28 26 24 23 23 23 23 23 23 23 23 22 22 22 22 22 22 21 22 22 23 24
22 22 23 23 23 24 25 26 28 29 30 30 30 29 28 28 28 28 28 28 27 27 26 23 23 22 23 23 23 22 22 22 22 21 21 21 21 22 22 22 22 22 23
20 21 22 22 22 23 24 26 27 28 29 29 30 29 29 28 27 28 28 28 27 25 24 24 24 23 23 23 23 23 23 24 24 23 22 23 23 23 23 23 23 23 24
Wind_Direction
240 223 229 231 250 242 241 233 235 233 228 227 229 233 234 243 259 270 278 290 275 289 287 284 293 304 310 320 324 327 327 332 330 336 334 333 333 335 337 343 345 345 345
224 185 228 227 251 253 248 247 249 245 244 239 239 238 240 253 264 279 274 260 273 279 284 292 296 303 309 316 319 322 327 331 332 333 331 330 333 335 337 339 341 343 342
111 119 187 220 238 265 260 255 265 251 247 245 248 250 255 260 271 272 258 252 254 273 282 290 295 302 310 313 315 317 326 327 327 327 326 329 330 332 333 335 335 338 339
14 156 78 83 47 70 271 266 122 235 262 262 261 256 252 257 242 222 239 236 257 274 285 293 297 301 307 308 312 320 323 325 326 326 326 326 328 331 331 329 328 332 332
21 63 50 63 73 71 68 70 98 135 113 133 145 209 237 238 217 189 199 228 258 278 289 293 298 303 307 307 311 317 319 323 324 325 324 324 325 327 328 331 328 330 330
34 25 23 25 35 36 28 64 90 87 355 279 266 250 242 227 192 213 249 258 268 278 285 294 301 304 305 309 315 318 320 321 320 321 322 323 325 327 330 329 328 326 327
352 356 350 351 352 351 349 344 324 285 277 264 251 248 257 264 263 261 259 265 272 280 288 295 300 304 307 309 313 317 318 320 320 322 320 322 326 329 330 329 327 326 325
342 334 328 331 330 335 330 319 310 286 277 262 260 263 268 273 271 269 270 275 281 287 291 297 301 303 306 310 312 314 316 318 321 322 322 323 326 326 328 331 330 328 326
337 333 323 322 317 317 314 302 285 287 281 274 270 272 275 276 272 271 274 279 284 289 294 297 301 305 308 311 311 311 313 315 321 324 323 325 326 329 331 333 331 330 328
5 353 349 342 325 318 311 295 301 298 293 289 286 286 284 277 275 275 280 281 284 288 295 298 303 306 310 315 315 314 311 314 318 320 322 325 328 329 333 334 333 330 330
349 340 336 330 323 321 314 307 303 299 294 288 285 284 283 281 277 275 277 281 282 285 290 296 303 307 311 314 314 315 314 316 315 317 319 323 324 327 330 331 334 333 330
341 333 327 322 315 308 303 300 297 293 290 287 285 284 284 283 279 274 274 278 284 283 288 295 301 305 307 311 313 314 314 315 315 316 317 319 319 321 324 328 333 335 336
341 337 330 325 318 312 306 302 298 294 291 289 286 284 283 282 280 277 272 273 277 283 289 294 298 302 305 309 311 314 314 313 313 314 315 318 319 321 324 329 330 334 337
336 332 329 326 321 315 309 305 300 296 293 291 289 286 285 284 280 278 276 275 275 278 283 288 294 300 303 309 312 314 313 312 311 312 313 316 321 322 322 327 327 329 330
348 336 325 322 318 312 310 304 299 298 298 293 291 289 286 283 281 280 277 277 276 278 281 286 289 294 299 305 310 311 312 312 310 311 311 314 316 319 323 325 324 326 327
344 338 335 331 322 313 308 304 302 300 297 295 291 291 288 286 285 283 281 279 278 276 277 280 283 290 296 303 306 309 309 310 309 309 310 312 313 318 320 322 322 322 322
338 337 335 329 324 318 313 304 296 297 297 295 291 293 292 287 285 282 280 279 277 276 277 278 282 289 295 300 304 305 305 305 308 309 309 310 313 317 318 318 319 318 318
338 338 333 332 327 322 318 312 307 300 297 295 297 292 291 291 291 288 285 283 280 276 275 276 282 290 295 297 299 299 299 302 305 307 308 310 310 311 313 315 316 316 317
333 335 336 335 332 326 320 315 311 307 303 299 298 296 298 296 290 285 283 285 283 281 278 278 284 289 292 292 293 295 296 298 302 307 307 306 307 307 308 309 311 313 313
332 333 333 334 333 330 325 319 315 311 308 305 300 300 299 296 292 291 288 284 279 278 280 282 286 288 289 288 290 292 293 295 298 302 306 305 305 305 304 305 306 307 306
333 334 334 336 335 334 329 324 318 314 310 308 307 303 301 297 294 294 292 290 288 286 286 286 288 289 289 288 288 289 290 293 297 299 299 302 305 303 302 302 301 301 302
335 334 333 333 336 336 333 329 323 317 313 312 311 308 303 300 297 296 296 296 295 296 295 292 291 290 290 290 290 290 291 293 295 297 298 301 301 301 300 298 298 298 299
335 333 332 334 336 337 336 334 331 324 318 315 313 312 309 303 301 299 297 298 299 299 300 298 296 295 295 294 295 294 294 295 297 298 297 299 300 300 299 297 297 296 296
335 332 332 334 335 336 334 332 330 326 322 318 315 313 311 308 304 299 298 296 294 295 297 298 299 299 299 298 299 299 299 301 302 301 300 300 299 299 299 298 298 297 297
335 333 332 333 333 333 332 332 330 327 324 320 318 316 313 310 306 303 299 298 296 295 296 298 300 300 300 299 299 300 300 301 302 304 304 303 301 301 300 300 300 300 300
332 331 330 331 331 331 331 331 331 330 328 325 320 318 314 310 308 302 300 297 297 297 297 297 298 300 301 301 301 300 300 299 300 300 301 300 300 300 301 301 301 300 300